KB2KRJ Weather Reports


Display with metric or nautical units.
time (UTC)temp
F
wind
direction
speed
MPH
gust
MPH
rain 1hr
in
rain 24hr
in
rain mn
in
humidity
%
barometer
mb
20260901123036 68 149 0.0 0.0 0.00 0.00 0.00 100 1016.0
20260901121536 0 0.0 0.0 0.00 0.00 0.00 1015.8
20260901120038 0 0.0 0.0 0.00 0.00 0.00 1016.1
20260901114523 0 0.0 0.0 0.00 0.00 0.00 1015.8
20260901113019 0 0.0 0.0 0.00 0.00 0.00 1016.0
20260901111515 0 0.0 0.0 0.00 0.00 0.00 1015.6
20260901110011 0 0.0 0.0 0.00 0.00 0.00 1015.6
20260901104505 0 0.0 0.0 0.00 0.00 0.00 1015.4
20260901103003 0 0.0 0.0 0.00 0.00 0.00 1015.5
20260901101556 0 0.0 0.0 0.00 0.00 0.00 1015.2
20260901100052 0 0.0 0.0 0.00 0.00 0.00 1015.3
20260901094545 67 149 0.0 0.0 0.00 0.00 0.00 100 1015.2
20260901093041 67 149 0.0 0.0 0.00 0.00 0.00 100 1015.3
20260901091537 67 149 0.0 0.0 0.00 0.00 0.00 100 1015.5
20260901090033 67 149 0.0 0.0 0.00 0.00 0.00 100 1015.5
20260901084528 67 149 0.0 0.0 0.00 0.00 0.00 100 1015.5
20260901083025 67 149 0.0 0.0 0.00 0.00 0.00 100 1015.6
20260901081519 68 149 0.0 0.0 0.00 0.00 0.00 100 1016.0
20260901080018 68 149 0.0 0.0 0.00 0.00 0.00 100 1015.9
20260901074511 68 149 0.0 0.0 0.00 0.00 0.00 100 1016.0
20260901073006 68 149 0.0 0.0 0.00 0.00 0.00 100 1016.2
20260901071502 68 149 0.0 0.0 0.00 0.00 0.00 100 1016.3
20260901070103 68 149 0.0 0.0 0.00 0.00 0.00 100 1016.4
20260901064553 68 149 0.0 0.0 0.00 0.00 0.00 100 1016.4
20260901063048 68 149 0.0 0.0 0.00 0.00 0.00 100 1016.5
20260901061544 68 149 0.0 0.0 0.00 0.00 0.00 100 1016.6
20260901060039 68 149 0.0 0.0 0.00 0.00 0.00 100 1017.1
20260901054535 68 149 0.0 0.0 0.00 0.00 0.00 100 1017.2
20260901053030 68 149 0.0 0.0 0.00 0.00 0.00 100 1017.1
20260901051527 68 149 0.0 0.0 0.00 0.00 0.00 100 1017.2
20260901050024 68 149 0.0 0.0 0.00 0.00 0.00 100 1017.0
20260901044518 68 149 0.0 0.0 0.00 0.00 0.00 100 1017.4
20260901043016 68 149 0.0 0.0 0.00 0.00 0.00 100 1017.5
20260901041509 68 149 0.0 0.0 0.00 0.00 0.00 100 1017.5
20260901040009 68 149 0.0 0.0 0.00 0.00 0.00 100 1017.4
20260901034609 68 149 0.0 0.0 0.00 0.00 0.00 100 1017.3
20260901033056 69 144 0.0 3.0 0.00 0.00 0.00 100 1017.2
20260901031553 69 82 0.0 0.0 0.00 0.00 0.00 100 1017.7
20260901030047 69 82 0.0 0.0 0.00 0.00 0.00 100 1017.9
20260901024542 69 82 0.0 0.0 0.00 0.00 0.00 100 1017.9
20260901023043 69 82 0.0 0.0 0.00 0.00 0.00 100 1018.1
20260901021536 69 82 0.0 0.0 0.00 0.00 0.00 100 1018.0
20260901020030 69 82 0.0 0.0 0.00 0.00 0.00 100 1018.0
20260901014524 69 82 0.0 0.0 0.00 0.00 0.00 100 1018.1
20260901013021 69 82 0.0 0.0 0.00 0.00 0.00 100 1017.9
20260901011516 69 82 0.0 0.0 0.00 0.00 0.00 100 1017.8
20260901010012 70 82 0.0 0.0 0.00 0.00 0.00 100 1017.8
20260901004507 70 82 0.0 0.0 0.00 0.00 0.00 100 1017.8
20260901003003 70 82 0.0 0.0 0.00 0.00 0.00 100 1017.9
20260901001559 70 82 0.0 0.0 0.00 0.00 0.00 100 1017.9
20260901000100 70 82 0.0 0.0 0.00 0.00 0.00 100 1017.9
20260831234550 70 82 0.0 0.0 0.00 0.00 0.00 100 1017.8
20260831233047 70 82 0.0 0.0 0.00 0.00 0.00 100 1017.8
20260831231546 71 82 0.0 0.0 0.00 0.00 0.00 100 1018.1
20260831230040 71 82 0.0 0.0 0.00 0.00 0.00 100 1018.2
20260831224532 71 82 0.0 0.0 0.00 0.00 0.00 100 1018.2
20260831223028 72 82 0.0 0.0 0.00 0.00 0.00 100 1018.3
20260831221525 72 82 0.0 0.0 0.00 0.00 0.00 4 1018.4
20260831220019 72 82 0.0 0.0 0.00 0.00 0.00 11 1018.3
20260831214514 73 82 0.0 0.0 0.00 0.00 0.00 13 1018.4
20260831213010 73 82 0.0 0.0 0.00 0.00 0.00 11 1018.3
20260831211510 73 82 0.0 0.0 0.00 0.00 0.00 21 1018.4
20260831210001 73 82 0.0 0.0 0.00 0.00 0.00 21 1018.3
20260831204557 73 82 0.0 0.0 0.00 0.00 0.00 24 1018.3
20260831203053 74 82 0.0 1.0 0.00 0.00 0.00 29 1018.3
20260831201548 74 82 0.0 2.0 0.00 0.00 0.00 31 1018.4
20260831200044 74 132 0.0 2.0 0.00 0.00 0.00 37 1018.3
20260831194556 75 129 0.0 0.0 0.00 0.00 0.00 30 1018.4
20260831193034 75 129 0.0 0.0 0.00 0.00 0.00 32 1018.5
20260831191530 74 129 0.0 0.0 0.00 0.00 0.00 33 1018.8
20260831190026 74 129 0.0 1.0 0.00 0.00 0.00 41 1018.9
20260831184521 74 129 0.0 1.0 0.00 0.00 0.00 46 1019.2
20260831183017 75 129 0.0 3.0 0.00 0.00 0.00 47 1019.1
20260831181513 75 173 0.0 6.0 0.00 0.00 0.00 52 1019.1
20260831180011 76 182 0.0 2.0 0.00 0.00 0.00 50 1019.4
20260831174505 75 168 1.0 7.0 0.00 0.00 0.00 53 1019.3
20260831173104 75 199 1.0 5.0 0.00 0.00 0.00 51 1019.5
20260831171558 75 163 0.0 4.0 0.00 0.00 0.00 43 1019.7
20260831170052 74 164 0.0 3.0 0.00 0.00 0.00 42 1019.8
20260831164547 75 135 0.0 3.0 0.00 0.00 0.00 47 1020.3
20260831163042 74 138 0.0 4.0 0.00 0.00 0.00 48 1020.1
20260831161538 74 113 0.0 4.0 0.00 0.00 0.00 45 1020.3
20260831160039 74 49 0.0 1.0 0.00 0.00 0.00 37 1020.6
20260831154529 74 49 0.0 3.0 0.00 0.00 0.00 44 1020.5
20260831153025 74 173 0.0 4.0 0.00 0.00 0.00 45 1020.7
20260831151521 74 167 0.0 3.0 0.00 0.00 0.00 37 1020.6
20260831150016 73 11 0.0 0.0 0.00 0.00 0.00 32 1020.7
20260831144511 72 11 0.0 1.0 0.00 0.00 0.00 30 1020.8
20260831143007 72 11 0.0 1.0 0.00 0.00 0.00 26 1020.8
20260831141503 72 11 0.0 1.0 0.00 0.00 0.00 29 1020.7
20260831140058 72 11 0.0 1.0 0.00 0.00 0.00 20 1020.8
20260831134554 71 11 0.0 0.0 0.00 0.00 0.00 11 1020.7
20260831133049 71 11 0.0 0.0 0.00 0.00 0.00 5 1020.8
20260831131550 70 11 0.0 0.0 0.00 0.00 0.00 100 1020.8
20260831130041 69 10 0.0 2.0 0.00 0.00 0.00 100 1020.9
20260831124537 68 13 0.0 0.0 0.00 0.00 0.00 100 1020.9